Location: *
(18.5200°S, 46.4500°E)
Time: 23:48:34
(UTC+00:00)

SAR-Lupe-2 - Pass Details

Date: 19 July 2019
Orbit: 480 x 486 km, 98.2° (Epoch: 30 March)

Event Time Altitude Azimuth Distance (km) Brightness Sun altitude
Rises 15:09:20 0° 8° (N) 2,534 7.4 -8.4°
Reaches altitude 10° 15:11:23 10° 6° (N) 1,662 6.4 -8.9°
Maximum altitude 15:14:56 70° 282° (WNW) 521 3.9 -9.7°
Drops below altitude 10° 15:18:33 10° 197° (SSW) 1,684 6.3 -10.5°
Sets 15:20:38 0° 195° (SSW) 2,572 7.2 -11.0°
